Stündliche Wetter Stuttgart

Heute, 11 April, Sonntag

Zeit Temperatur Niederschläge Wind Luftdruck Luftfeuchtigkeit
00:00 +10°C° 0 mm 2 m/S 732 mmHg 76%
01:00 +9°C° 0 mm 2 m/S 731 mmHg 74%
02:00 +9°C° 0 mm 2 m/S 731 mmHg 73%
03:00 +10°C° 0 mm 1 m/S 731 mmHg 72%
04:00 +10°C° 0 mm 1 m/S 731 mmHg 72%
05:00 +10°C° 0 mm 1 m/S 731 mmHg 73%
06:00 +11°C° 0 mm 1 m/S 731 mmHg 74%
07:00 +11°C° 0 mm 1 m/S 731 mmHg 75%
08:00 +13°C° 0 mm 2 m/S 731 mmHg 70%
09:00 +14°C° 0 mm 2 m/S 731 mmHg 65%
10:00 +16°C° 0 mm 3 m/S 730 mmHg 60%
11:00 +17°C° 0.1 mm 3 m/S 730 mmHg 58%
12:00 +18°C° 0.1 mm 3 m/S 730 mmHg 55%
13:00 +19°C° 0.1 mm 3 m/S 730 mmHg 52%
14:00 +17°C° 0.3 mm 4 m/S 730 mmHg 60%
15:00 +15°C° 0.3 mm 5 m/S 730 mmHg 69%
16:00 +13°C° 0.3 mm 6 m/S 731 mmHg 77%
17:00 +12°C° 0.4 mm 5 m/S 731 mmHg 81%
18:00 +11°C° 0.4 mm 4 m/S 732 mmHg 85%
19:00 +10°C° 0.4 mm 3 m/S 732 mmHg 89%
20:00 +8°C° 0.9 mm 3 m/S 733 mmHg 91%
21:00 +7°C° 0.9 mm 3 m/S 734 mmHg 93%
22:00 +5°C° 0.9 mm 4 m/S 735 mmHg 95%
23:00 +4°C° 0.6 mm 3 m/S 736 mmHg 96%

Morgen, 12 April, Montag

Zeit Temperatur Niederschläge Wind Luftdruck Luftfeuchtigkeit
00:00 +3°C° 0.6 mm 3 m/S 736 mmHg 96%
01:00 +3°C° 0.6 mm 3 m/S 737 mmHg 97%
02:00 +2°C° 0.9 mm 3 m/S 737 mmHg 97%
03:00 +2°C° 0.9 mm 3 m/S 738 mmHg 98%
04:00 +2°C° 0.9 mm 3 m/S 738 mmHg 98%
05:00 +1°C° 0.7 mm 3 m/S 739 mmHg 97%
06:00 +1°C° 0.7 mm 3 m/S 740 mmHg 96%
07:00 +1°C° 0.7 mm 3 m/S 740 mmHg 95%
08:00 +1°C° 0.2 mm 3 m/S 741 mmHg 90%
09:00 +2°C° 0.2 mm 3 m/S 741 mmHg 85%
10:00 +2°C° 0.2 mm 3 m/S 742 mmHg 80%
11:00 +3°C° 0 mm 3 m/S 742 mmHg 76%
12:00 +3°C° 0 mm 3 m/S 742 mmHg 72%
13:00 +4°C° 0 mm 3 m/S 742 mmHg 68%
14:00 +5°C° 0 mm 2 m/S 742 mmHg 65%
15:00 +5°C° 0 mm 2 m/S 742 mmHg 62%
16:00 +7°C° 0 mm 1 m/S 742 mmHg 59%
17:00 +6°C° 0 mm 1 m/S 742 mmHg 64%
18:00 +5°C° 0 mm 1 m/S 743 mmHg 69%
19:00 +5°C° 0 mm 1 m/S 743 mmHg 74%
20:00 +4°C° 0 mm 1 m/S 743 mmHg 77%
21:00 +4°C° 0 mm 1 m/S 743 mmHg 81%
22:00 +3°C° 0 mm 1 m/S 744 mmHg 84%
23:00 +3°C° 0 mm 1 m/S 744 mmHg 85%

übermorgen, 13 April, Dienstag

Zeit Temperatur Niederschläge Wind Luftdruck Luftfeuchtigkeit
00:00 +2°C° 0 mm 1 m/S 744 mmHg 86%
01:00 +2°C° 0 mm 1 m/S 744 mmHg 87%
02:00 +2°C° 0 mm 1 m/S 744 mmHg 88%
03:00 +2°C° 0 mm 1 m/S 744 mmHg 90%
04:00 +1°C° 0 mm 1 m/S 744 mmHg 91%
05:00 +2°C° 0.1 mm 1 m/S 744 mmHg 92%
06:00 +2°C° 0.1 mm 1 m/S 744 mmHg 92%
07:00 +3°C° 0.1 mm 1 m/S 745 mmHg 93%
08:00 +3°C° 0.3 mm 1 m/S 745 mmHg 93%
09:00 +2°C° 0.3 mm 2 m/S 745 mmHg 93%
10:00 +3°C° 0.3 mm 2 m/S 745 mmHg 94%
11:00 +3°C° 0.2 mm 2 m/S 745 mmHg 89%
12:00 +3°C° 0.2 mm 3 m/S 745 mmHg 84%
13:00 +4°C° 0.2 mm 3 m/S 745 mmHg 80%
14:00 +4°C° 0.2 mm 3 m/S 745 mmHg 73%
15:00 +5°C° 0.2 mm 3 m/S 745 mmHg 67%
16:00 +7°C° 0.2 mm 3 m/S 744 mmHg 60%
17:00 +6°C° 0 mm 2 m/S 744 mmHg 65%
18:00 +4°C° 0 mm 2 m/S 744 mmHg 69%
19:00 +4°C° 0 mm 1 m/S 744 mmHg 73%
20:00 +3°C° 0 mm 1 m/S 745 mmHg 75%
21:00 +3°C° 0 mm 1 m/S 745 mmHg 77%
22:00 +2°C° 0 mm 1 m/S 745 mmHg 78%
23:00 0°C° 0 mm 0 m/S 745 mmHg 79%

14 April, Mittwoch

Zeit Temperatur Niederschläge Wind Luftdruck Luftfeuchtigkeit
00:00 0°C° 0 mm 0 m/S 745 mmHg 80%
01:00 0°C° 0 mm 0 m/S 745 mmHg 81%
02:00 -1°C° 0 mm 0 m/S 745 mmHg 82%
03:00 -1°C° 0 mm 0 m/S 745 mmHg 83%
04:00 -1°C° 0 mm 0 m/S 745 mmHg 84%
05:00 -1°C° 0 mm 0 m/S 745 mmHg 82%
06:00 0°C° 0 mm 0 m/S 745 mmHg 80%
07:00 +2°C° 0 mm 1 m/S 745 mmHg 78%
08:00 +3°C° 0 mm 1 m/S 745 mmHg 72%
09:00 +4°C° 0 mm 2 m/S 745 mmHg 65%
10:00 +5°C° 0 mm 3 m/S 744 mmHg 59%
11:00 +5°C° 0.1 mm 3 m/S 744 mmHg 54%
12:00 +7°C° 0.1 mm 3 m/S 744 mmHg 50%
13:00 +7°C° 0.1 mm 4 m/S 743 mmHg 45%
14:00 +7°C° 0.1 mm 4 m/S 743 mmHg 45%
15:00 +7°C° 0.1 mm 4 m/S 743 mmHg 45%
16:00 +8°C° 0.1 mm 3 m/S 742 mmHg 45%
17:00 +5°C° 0 mm 3 m/S 742 mmHg 54%
18:00 +5°C° 0 mm 2 m/S 742 mmHg 62%
19:00 +3°C° 0 mm 2 m/S 742 mmHg 70%
20:00 +4°C° 0 mm 1 m/S 743 mmHg 73%
21:00 +3°C° 0 mm 1 m/S 743 mmHg 76%
22:00 +2°C° 0 mm 1 m/S 743 mmHg 79%
23:00 +2°C° 0 mm 1 m/S 743 mmHg 80%

15 April, Donnerstag

Zeit Temperatur Niederschläge Wind Luftdruck Luftfeuchtigkeit
00:00 0°C° 0 mm 0 m/S 743 mmHg 82%
01:00 0°C° 0 mm 0 m/S 743 mmHg 83%
02:00 0°C° 0 mm 0 m/S 743 mmHg 84%
03:00 0°C° 0 mm 0 m/S 743 mmHg 85%
04:00 -1°C° 0 mm 0 m/S 743 mmHg 85%
05:00 +1°C° 0 mm 1 m/S 743 mmHg 82%
06:00 +2°C° 0 mm 1 m/S 743 mmHg 79%
07:00 +2°C° 0 mm 1 m/S 743 mmHg 76%
08:00 +3°C° 0 mm 2 m/S 743 mmHg 70%
09:00 +4°C° 0 mm 2 m/S 743 mmHg 64%
10:00 +5°C° 0 mm 3 m/S 743 mmHg 58%
11:00 +5°C° 0.2 mm 4 m/S 743 mmHg 59%
12:00 +6°C° 0.2 mm 4 m/S 743 mmHg 60%
13:00 +6°C° 0.2 mm 4 m/S 742 mmHg 61%
14:00 +6°C° 0.2 mm 4 m/S 742 mmHg 58%
15:00 +6°C° 0.2 mm 4 m/S 742 mmHg 55%
16:00 +6°C° 0.2 mm 4 m/S 742 mmHg 52%
17:00 +5°C° 0 mm 4 m/S 742 mmHg 56%
18:00 +4°C° 0 mm 3 m/S 742 mmHg 59%
19:00 +3°C° 0 mm 3 m/S 742 mmHg 63%
20:00 +2°C° 0 mm 3 m/S 742 mmHg 68%
21:00 +2°C° 0 mm 2 m/S 742 mmHg 72%
22:00 +1°C° 0 mm 2 m/S 743 mmHg 77%
23:00 -1°C° 0 mm 2 m/S 742 mmHg 79%

16 April, Freitag

Zeit Temperatur Niederschläge Wind Luftdruck Luftfeuchtigkeit
00:00 +1°C° 0 mm 1 m/S 742 mmHg 81%
01:00 0°C° 0 mm 1 m/S 742 mmHg 82%
02:00 0°C° 0 mm 1 m/S 742 mmHg 85%
03:00 0°C° 0 mm 1 m/S 742 mmHg 87%
04:00 0°C° 0 mm 1 m/S 742 mmHg 89%
05:00 0°C° 0 mm 1 m/S 742 mmHg 87%
06:00 +1°C° 0 mm 1 m/S 742 mmHg 84%
07:00 +1°C° 0 mm 2 m/S 742 mmHg 82%
08:00 +2°C° 0 mm 2 m/S 742 mmHg 75%
09:00 +3°C° 0 mm 3 m/S 742 mmHg 67%
10:00 +5°C° 0 mm 3 m/S 741 mmHg 59%
11:00 +5°C° 0 mm 4 m/S 741 mmHg 59%
12:00 +6°C° 0 mm 4 m/S 741 mmHg 59%
13:00 +6°C° 0 mm 5 m/S 741 mmHg 59%
14:00 +6°C° 0 mm 4 m/S 741 mmHg 62%
15:00 +6°C° 0 mm 4 m/S 741 mmHg 65%
16:00 +6°C° 0 mm 4 m/S 740 mmHg 67%
17:00 +5°C° 0 mm 4 m/S 740 mmHg 70%
18:00 +5°C° 0 mm 3 m/S 740 mmHg 74%
19:00 +4°C° 0 mm 3 m/S 740 mmHg 77%
20:00 +4°C° 0 mm 3 m/S 740 mmHg 79%
21:00 +4°C° 0 mm 3 m/S 741 mmHg 82%
22:00 +3°C° 0 mm 3 m/S 741 mmHg 84%
23:00 +3°C° 0 mm 3 m/S 741 mmHg 85%
Mehr zeigen

Wir brauchen deine Erlaubnis

Meteoprog und unser Service Anbieter werden persönliche Daten aufbewahren, so wie Cookies, Geräte Bezeichnung oder ähnliche Technologien von deinem Gerät und Prozess, so wie Persönliche Daten Inhalte und Werbungen, genauso wie social Media und den Verkehr zu analysieren.

  • Aufbewahrung und/oder Zugang zu deiner Geräte Informationen.

    Cookies, Geräte Bezeichnung oder andere Informationen, können aufbewahrt oder Zugang zu deinem Gerät erhalten, für den Grund, der oben angegeben wird.

  • Personalisierte Werbung und Inhalte, Messungen, Einblick in das Publikum und Produkt Entwicklung.

    Werbungen und Inhalte können personalisiert werden, basierend auf ein Profil. Mehr Daten können besser personalisierte Werbungen und Inhalte hinzufügen. Werbung und Inhalte können gezeigt und gemessen werden. Einblicke über das Publikum, welche die Werbung gesehen haben und den Inhalt, können abgeleitet werden. So wie Daten können genutzt werden, um es zu verbessern oder die Benutzer Erfahrung zu verbessern das System und die Software.

Wenn du “Ich stimme zu” klickst, erlaubst du uns, die Cookies zu benutzen die Geräte Bezeichnung, den Web oder ähnliche Technologien zu benutzen. Deine Settings, können in deinem Gerät bei deinem Browser geändert werden.

Für den bestimmten Zweck, berechtigten Interessen beruhen darauf, mehr als auf den Inhalt. Du kannst mehr darüber in unseren Privaten und Cookie Politik lesen.